N2QKV-13 Weather Reports


time (UTC)temp
C
wind
direction
speed
KPH
gust
KPH
rain 1hr
cm
rain 24hr
cm
rain mn
cm
humidity
%
barometer
mb
20260504214004 18 151 11.3 22.5 0.00 0.00 0.00 61 1010.2
20260504213504 18 162 8.0 16.1 0.00 0.00 0.00 62 1010.1
20260504213004 18 177 8.0 16.1 0.00 0.00 0.00 61 1010.0
20260504212503 18 166 8.0 16.1 0.00 0.00 0.00 62 1010.1
20260504212004 18 169 8.0 19.3 0.00 0.00 0.00 62 1010.0
20260504211504 18 149 11.3 24.1 0.00 0.00 0.00 63 1010.0
20260504211004 18 157 8.0 20.9 0.00 0.00 0.00 65 1010.1
20260504210504 18 137 6.4 20.9 0.00 0.00 0.00 65 1010.0
20260504210004 18 176 9.7 29.0 0.00 0.00 0.00 65 1009.9
20260504205504 18 147 9.7 29.0 0.00 0.00 0.00 65 1009.9
20260504205003 18 150 14.5 25.7 0.00 0.00 0.00 66 1009.9
20260504204503 18 140 12.9 27.4 0.00 0.00 0.00 65 1010.0
20260504204004 18 164 11.3 24.1 0.00 0.00 0.00 63 1010.0
20260504203504 18 141 9.7 32.2 0.00 0.00 0.00 64 1009.9
20260504203004 18 157 11.3 24.1 0.00 0.00 0.00 64 1010.0
20260504202503 18 161 9.7 22.5 0.00 0.00 0.00 64 1010.0
20260504202004 18 145 14.5 27.4 0.00 0.00 0.00 63 1010.0
20260504201503 18 162 12.9 32.2 0.00 0.00 0.00 62 1010.0
20260504201004 18 159 8.0 25.7 0.00 0.00 0.00 60 1010.3
20260504200504 19 173 9.7 27.4 0.00 0.00 0.00 61 1010.1
20260504200003 18 165 11.3 24.1 0.00 0.00 0.00 60 1010.3
20260504195503 18 171 8.0 19.3 0.00 0.00 0.00 61 1010.2
20260504195004 19 169 14.5 32.2 0.00 0.00 0.00 61 1010.3
20260504194503 19 157 11.3 19.3 0.00 0.00 0.00 60 1010.3
20260504194003 19 156 11.3 24.1 0.00 0.00 0.00 59 1010.5
20260504193504 20 157 9.7 22.5 0.00 0.00 0.00 58 1010.4
20260504193004 20 140 11.3 33.8 0.00 0.00 0.00 58 1010.5
20260504192504 20 166 9.7 22.5 0.00 0.00 0.00 58 1010.5
20260504192004 20 158 9.7 19.3 0.00 0.00 0.00 61 1010.7
20260504191503 20 165 9.7 29.0 0.00 0.00 0.00 59 1010.6
20260504191004 20 159 12.9 24.1 0.00 0.00 0.00 60 1010.8
20260504190504 20 167 8.0 20.9 0.00 0.00 0.00 59 1010.8
20260504190004 20 191 8.0 19.3 0.00 0.00 0.00 58 1010.8
20260504185503 20 142 6.4 20.9 0.00 0.00 0.00 58 1010.8
20260504185004 21 150 8.0 22.5 0.00 0.00 0.00 58 1010.9
20260504184504 20 161 9.7 19.3 0.00 0.00 0.00 58 1011.0
20260504184004 20 175 8.0 24.1 0.00 0.00 0.00 57 1011.1
20260504183503 21 206 4.8 12.9 0.00 0.00 0.00 56 1011.3
20260504183003 21 138 8.0 22.5 0.00 0.00 0.00 53 1011.3
20260504182504 23 133 6.4 24.1 0.00 0.00 0.00 46 1011.4
20260504182004 22 186 4.8 20.9 0.00 0.00 0.00 44 1011.5
20260504181504 23 157 8.0 14.5 0.00 0.00 0.00 43 1011.5
20260504181003 23 221 8.0 19.3 0.00 0.00 0.00 33 1011.5
20260504180504 23 171 9.7 19.3 0.00 0.00 0.00 34 1011.5
20260504180003 23 166 11.3 20.9 0.00 0.00 0.00 33 1011.6
20260504175504 23 230 8.0 24.1 0.00 0.00 0.00 33 1011.6
20260504175003 23 226 9.7 20.9 0.00 0.00 0.00 32 1011.5
20260504174503 22 294 4.8 20.9 0.00 0.00 0.00 34 1011.7
20260504174003 23 217 6.4 20.9 0.00 0.00 0.00 33 1011.6
20260504173503 23 231 4.8 19.3 0.00 0.00 0.00 33 1011.7
20260504173004 22 274 4.8 20.9 0.00 0.00 0.00 34 1011.7
20260504172503 23 222 4.8 19.3 0.00 0.00 0.00 35 1011.8
20260504172004 23 214 4.8 20.9 0.00 0.00 0.00 33 1011.8
20260504171503 23 285 8.0 12.9 0.00 0.00 0.00 33 1011.9
20260504171004 23 241 3.2 12.9 0.00 0.00 0.00 34 1011.9
20260504170503 22 273 6.4 19.3 0.00 0.00 0.00 34 1012.0
20260504151004 20 189 8.0 24.1 0.00 0.00 0.00 42 1013.2
20260504150504 20 148 3.2 22.5 0.00 0.00 0.00 42 1013.3
20260504141003 18 207 4.8 19.3 0.00 0.00 0.00 41 1013.7
20260504140504 18 199 11.3 25.7 0.00 0.00 0.00 39 1013.6
20260504130504 16 233 4.8 12.9 0.00 0.00 0.00 50 1014.3
20260504110503 10 159 3.2 8.0 0.00 0.00 0.00 71 1015.3
20260504100503 9 267 3.2 8.0 0.00 0.00 0.00 69 1015.0
20260504082004 9 229 1.6 4.8 0.00 0.00 0.00 60 1014.7
20260504081504 9 237 1.6 4.8 0.00 0.00 0.00 60 1014.7
20260504081004 9 237 1.6 4.8 0.00 0.00 0.00 60 1014.7
20260504080503 9 241 0.0 3.2 0.00 0.00 0.00 60 1014.6
20260504050503 8 197 0.0 1.6 0.00 0.00 0.00 56 1014.0
20260504050004 8 199 0.0 3.2 0.00 0.00 0.00 55 1014.0
20260504045503 9 242 0.0 1.6 0.00 0.00 0.00 55 1013.8
20260504045003 9 237 0.0 3.2 0.00 0.00 0.00 54 1013.9
20260504044504 9 237 0.0 3.2 0.00 0.00 0.00 54 1013.8
20260504044004 9 237 0.0 4.8 0.00 0.00 0.00 54 1013.7
20260504043504 9 202 1.6 4.8 0.00 0.00 0.00 54 1013.8
20260504043004 9 235 0.0 4.8 0.00 0.00 0.00 53 1013.8
20260504042504 9 224 0.0 1.6 0.00 0.00 0.00 53 1013.6
20260504042003 10 225 0.0 3.2 0.00 0.00 0.00 53 1013.7
20260504041503 10 223 0.0 4.8 0.00 0.00 0.00 53 1013.6
20260504041003 10 242 0.0 4.8 0.00 0.00 0.00 52 1013.6
20260504040504 10 238 1.6 3.2 0.00 0.00 0.00 53 1013.6
20260504040004 10 242 0.0 3.2 0.00 0.00 0.00 53 1013.5
20260504035503 10 240 0.0 3.2 0.00 0.00 0.00 53 1013.5
20260504035004 10 204 1.6 4.8 0.00 0.00 0.00 53 1013.4
20260504034504 10 186 0.0 1.6 0.00 0.00 0.00 52 1013.5
20260504034003 10 186 0.0 3.2 0.00 0.00 0.00 52 1013.4
20260504033504 10 241 1.6 4.8 0.00 0.00 0.00 51 1013.3
20260504033004 10 248 1.6 4.8 0.00 0.00 0.00 51 1013.4
20260504032503 10 239 1.6 4.8 0.00 0.00 0.00 51 1013.3
20260504032004 10 213 0.0 1.6 0.00 0.00 0.00 51 1013.3
20260504031503 10 214 0.0 3.2 0.00 0.00 0.00 51 1013.3
20260504031003 10 208 0.0 8.0 0.00 0.00 0.00 51 1013.3
20260504030504 10 209 1.6 8.0 0.00 0.00 0.00 51 1013.2
20260504030003 10 211 0.0 4.8 0.00 0.00 0.00 51 1013.2
20260504025504 10 221 0.0 4.8 0.00 0.00 0.00 51 1013.2
20260504025003 10 233 0.0 9.7 0.00 0.00 0.00 51 1013.2
20260504024503 10 219 0.0 9.7 0.00 0.00 0.00 51 1013.2
20260504024003 10 205 0.0 1.6 0.00 0.00 0.00 52 1013.2
20260504023504 10 211 1.6 4.8 0.00 0.00 0.00 51 1013.2
20260504023003 10 255 1.6 3.2 0.00 0.00 0.00 52 1013.2
20260504022504 10 255 1.6 4.8 0.00 0.00 0.00 52 1013.2
20260504022003 10 203 1.6 8.0 0.00 0.00 0.00 52 1013.3
20260504021504 10 210 0.0 4.8 0.00 0.00 0.00 52 1013.2
20260504021003 10 202 0.0 3.2 0.00 0.00 0.00 52 1013.2
20260504020504 10 204 0.0 3.2 0.00 0.00 0.00 52 1013.2
20260504020004 10 205 0.0 3.2 0.00 0.00 0.00 53 1013.2
20260504015503 10 205 0.0 0.0 0.00 0.00 0.00 53 1013.2
20260504015004 10 205 0.0 0.0 0.00 0.00 0.00 53 1013.2
20260504014503 10 206 0.0 3.2 0.00 0.00 0.00 52 1013.2
20260504014003 10 207 1.6 4.8 0.00 0.00 0.00 51 1013.0
20260504013504 11 213 1.6 4.8 0.00 0.00 0.00 50 1013.1
20260504013003 11 245 0.0 1.6 0.00 0.00 0.00 49 1013.0
20260504012503 11 238 0.0 0.0 0.00 0.00 0.00 48 1012.9
20260504012004 11 237 0.0 0.0 0.00 0.00 0.00 48 1012.9
20260504011503 11 237 0.0 3.2 0.00 0.00 0.00 47 1012.8
20260504011004 11 243 0.0 1.6 0.00 0.00 0.00 47 1012.8
20260504010503 11 243 0.0 1.6 0.00 0.00 0.00 47 1012.7
20260504010003 11 243 1.6 4.8 0.00 0.00 0.00 46 1012.6
20260504005504 11 243 0.0 3.2 0.00 0.00 0.00 46 1012.6
20260504005004 11 243 0.0 0.0 0.00 0.00 0.00 46 1012.5
20260504004503 12 243 0.0 0.0 0.00 0.00 0.00 45 1012.5
20260504004004 12 243 0.0 0.0 0.00 0.00 0.00 44 1012.4
20260504003503 12 243 0.0 0.0 0.00 0.00 0.00 44 1012.3
20260504003004 12 243 0.0 1.6 0.00 0.00 0.00 43 1012.3
20260504002504 12 243 0.0 3.2 0.00 0.00 0.00 42 1012.3
20260504002004 12 243 0.0 1.6 0.00 0.00 0.00 41 1012.2
20260504001504 13 243 0.0 1.6 0.00 0.00 0.00 40 1012.2
20260504001003 13 243 0.0 1.6 0.00 0.00 0.00 39 1012.1
20260504000504 13 243 0.0 0.0 0.00 0.00 0.00 38 1012.0
20260504000004 13 243 1.6 3.2 0.00 0.00 0.00 37 1012.0
20260503235503 13 243 0.0 3.2 0.00 0.00 0.00 36 1011.9
20260503235003 13 243 0.0 3.2 0.00 0.00 0.00 36 1011.8
20260503234504 13 248 1.6 8.0 0.00 0.00 0.00 36 1011.7
20260503234003 14 250 3.2 4.8 0.00 0.00 0.00 36 1011.6
20260503233504 14 240 1.6 4.8 0.00 0.00 0.00 35 1011.6
20260503233003 14 213 3.2 8.0 0.00 0.00 0.00 34 1011.5
20260503232503 14 216 3.2 4.8 0.00 0.00 0.00 35 1011.7
20260503232004 14 238 4.8 9.7 0.00 0.00 0.00 34 1011.6
20260503231503 15 212 3.2 8.0 0.00 0.00 0.00 34 1011.6
20260503231004 15 234 4.8 11.3 0.00 0.00 0.00 33 1011.6
20260503230504 15 255 4.8 14.5 0.00 0.00 0.00 33 1011.5
20260503230003 15 237 4.8 11.3 0.00 0.00 0.00 32 1011.5
20260503225504 15 239 6.4 16.1 0.00 0.00 0.00 32 1011.5
20260503225004 15 252 3.2 11.3 0.00 0.00 0.00 32 1011.4
20260503224503 15 258 3.2 12.9 0.00 0.00 0.00 32 1011.4
20260503224004 15 276 4.8 19.3 0.00 0.00 0.00 31 1011.4
20260503223503 15 301 3.2 9.7 0.00 0.00 0.00 32 1011.4
20260503223004 15 259 3.2 11.3 0.00 0.00 0.00 32 1011.3
20260503222503 15 257 3.2 16.1 0.00 0.00 0.00 30 1011.4
20260503222003 15 285 6.4 19.3 0.00 0.00 0.00 31 1011.3
20260503221504 15 248 4.8 19.3 0.00 0.00 0.00 33 1011.3
20260503221003 15 283 8.0 22.5 0.00 0.00 0.00 31 1011.4
20260503220504 15 234 4.8 22.5 0.00 0.00 0.00 31 1011.5
20260503220004 16 266 6.4 20.9 0.00 0.00 0.00 31 1011.4
20260503215504 16 306 6.4 19.3 0.00 0.00 0.00 31 1011.3
20260503215003 16 212 3.2 11.3 0.00 0.00 0.00 33 1011.4
20260503214504 16 228 8.0 19.3 0.00 0.00 0.00 31 1011.2